Weather History for Point Salines, Grenada

Change the Weather History Date:

Sunday, March 9, 2014

  Actual Average Record
Temperature  
Mean Temperature 78 °F -  
Max Temperature 83 °F 83 °F 86 °F (1998)
Min Temperature 73 °F 75 °F 71 °F (2009)
Cooling Degree Days 13    
Growing Degree Days 28 (Base 50)    
Moisture  
Dew Point 71 °F    
Average Humidity 77    
Maximum Humidity 94    
Minimum Humidity 61    
Precipitation  
Precipitation 0.16 in - - ()
Sea Level Pressure  
Sea Level Pressure 29.95 in    
Wind  
Wind Speed 12 mph ()    
Max Wind Speed 20 mph    
Max Gust Speed -    
Visibility 7.6 miles    
Events Rain    
Averages and records for this station are not official NWS values.
T = Trace of Precipitation, MM = Missing Value Source: Averaged Metar Reports

Daily Weather History Graph

Daily Weather History Graph

Search for Another Location

Airport:

Trip Planner

Search our weather history database for the weather conditions in past years. The results will help you decide how hot, cold, wet, or windy it might be!

Date:

Astronomy

Mar. 09, 2014 Rise Set
Actual Time 6:18 AM AST 6:17 PM AST
Civil Twilight 5:56 AM AST 6:38 PM AST
Nautical Twilight 5:32 AM AST 7:03 PM AST
Astronomical Twilight 5:07 AM AST 7:27 PM AST
Moon 12:48 PM AST (3/9) 12:57 AM AST (3/9)
Length of Visible Light 12h 41m
Length of Day
11h 59m
First Quarter, 61% of the Moon is Illuminated
Mar 9
First Quarter
Mar 16
Full
Mar 23
Last Quarter
Mar 30
New
Apr 7
First Quarter

Hourly Weather History & Observations

Time (AST) Temp. Heat Index Dew Point Humidity Pressure Visibility Wind Dir Wind Speed Gust Speed Precip Events Conditions
12:00 AM 78.8 °F - 69.8 °F 74% 29.95 in 6.2 mi ESE 15.0 mph - N/A   Partly Cloudy
1:00 AM 77.0 °F - 69.8 °F 78% 29.95 in 6.2 mi ESE 16.1 mph - N/A Rain Light Rain Showers
2:00 AM 78 °F - 70 °F 70% 29.93 in 11 mi SE 13.8 mph - -   Widespread Dust
2:00 AM 78.8 °F - 69.8 °F 74% 29.92 in 6.2 mi SE 13.8 mph - N/A   Partly Cloudy
3:00 AM 78.8 °F - 69.8 °F 74% 29.92 in 6.2 mi ESE 15.0 mph - N/A   Partly Cloudy
4:00 AM 77.0 °F - 69.8 °F 78% 29.92 in 6.2 mi SE 15.0 mph - N/A   Partly Cloudy
5:00 AM 77 °F - 71 °F 75% 29.93 in 11 mi East 10.4 mph - -   Widespread Dust
5:00 AM 77.0 °F - 69.8 °F 78% 29.92 in 6.2 mi East 10.4 mph - N/A   Scattered Clouds
6:00 AM 73.4 °F - 71.6 °F 94% 29.95 in 6.2 mi NE 6.9 mph - N/A   Mostly Cloudy
7:00 AM 73.4 °F - 71.6 °F 94% 29.98 in 6.2 mi NE 8.1 mph - N/A Rain Light Rain
8:00 AM 76 °F - 70 °F 76% 29.99 in 7 mi East 9.2 mph - -  
8:00 AM 75.2 °F - 69.8 °F 83% 29.98 in 6.2 mi East 9.2 mph - N/A   Mostly Cloudy
9:00 AM 78.8 °F - 71.6 °F 78% 30.01 in 6.2 mi ESE 15.0 mph - N/A   Mostly Cloudy
10:00 AM 80.6 °F 85.4 °F 73.4 °F 79% 30.01 in 6.2 mi SE 17.3 mph - N/A   Partly Cloudy
11:00 AM 82 °F - 73 °F 67% 30.01 in 16 mi SE 17.3 mph - -   Scattered Clouds
11:00 AM 82.4 °F 88.2 °F 73.4 °F 74% 30.01 in 6.2 mi SE 17.3 mph - N/A   Partly Cloudy
12:00 PM 82.4 °F 88.2 °F 73.4 °F 74% 29.98 in 6.2 mi SE 19.6 mph - N/A   Partly Cloudy
1:00 PM 82.4 °F 88.2 °F 73.4 °F 74% 29.95 in 6.2 mi SE 16.1 mph - N/A   Partly Cloudy
2:00 PM 82 °F - 71 °F 61% 29.93 in 15 mi SE 16.1 mph - -   Partly Cloudy
2:00 PM 82.4 °F 87.2 °F 71.6 °F 70% 29.92 in 6.2 mi SE 16.1 mph - N/A   Scattered Clouds
3:00 PM 82.4 °F 87.2 °F 71.6 °F 70% 29.89 in 6.2 mi SE 17.3 mph - N/A   Mostly Cloudy
4:00 PM 82.4 °F 87.2 °F 71.6 °F 70% 29.89 in 6.2 mi ESE 18.4 mph - N/A   Scattered Clouds
5:00 PM 80 °F - 72 °F 70% 29.91 in 14 mi East 16.1 mph - -   Widespread Dust
5:00 PM 80.6 °F 84.6 °F 71.6 °F 74% 29.89 in 6.2 mi East 16.1 mph - N/A   Mostly Cloudy
6:00 PM 77.0 °F - 69.8 °F 78% 29.92 in 6.2 mi East 11.5 mph - N/A   Mostly Cloudy
7:00 PM 77.0 °F - 69.8 °F 78% 29.92 in 6.2 mi East 13.8 mph - N/A   Mostly Cloudy
8:00 PM 75 °F - 71 °F 85% 29.95 in 10 mi East 11.5 mph - - Rain Light Rain
8:00 PM 75.2 °F - 71.6 °F 89% 29.95 in 6.2 mi East 11.5 mph - N/A   Mostly Cloudy
9:00 PM 75.2 °F - 71.6 °F 89% 29.95 in 6.2 mi ENE 6.9 mph - N/A   Scattered Clouds
10:00 PM 77.0 °F - 71.6 °F 83% 29.95 in 6.2 mi East 13.8 mph - N/A   Partly Cloudy
11:00 PM 76 °F - 71 °F 78% 29.96 in 10 mi ENE 6.9 mph - -   Widespread Dust
11:00 PM 77.0 °F - 69.8 °F 78% 29.95 in 6.2 mi ENE 6.9 mph - N/A   Scattered Clouds